Location: ?????
(33.6267°N, 35.4675°E)
Time: 06:22:33
(UTC+00:00)

Cosmos 2278 - Pass Details

Date: 12 November 2019
Orbit: 838 x 855 km, 71.1° (Epoch: 07 December)

Event Time Altitude Azimuth Distance (km) Brightness Sun altitude
Rises 16:27:23 0° 199° (SSW) 3,380 7.2 -23.0°
Reaches altitude 10° 16:29:49 10° 199° (SSW) 2,451 6.4 -23.5°
Maximum altitude 16:35:27 90° 119° (ESE) 849 3.6 -24.7°
Enters shadow 16:37:28 42° 20° (NNE) 1,187 4.2 -25.1°
